KD8UYA Weather Reports


Display with metric or nautical units.
time (UTC)temp
F
wind
direction
speed
MPH
gust
MPH
rain 1hr
in
rain 24hr
in
rain mn
in
humidity
%
barometer
mb
20260903140059 77 233 1.0 3.0 0.00 0.02 0.02 89 1012.2
20260903134600 77 251 0.0 6.0 0.00 0.02 0.02 89 1012.2
20260903133102 76 253 0.0 1.0 0.00 0.02 0.02 90 1012.2
20260903131556 75 255 1.0 4.0 0.00 0.02 0.02 91 1012.3
20260903130058 73 248 0.0 2.0 0.00 0.02 0.02 93 1012.5
20260903124607 72 249 1.0 4.0 0.00 0.02 0.02 94 1012.5
20260903123056 71 142 0.0 0.0 0.00 0.02 0.02 95 1012.4
20260903121600 70 140 0.0 0.0 0.00 0.02 0.02 95 1012.4
20260903120101 69 103 0.0 4.0 0.01 0.02 0.02 95 1012.5
20260903114553 69 95 1.0 6.0 0.02 0.02 0.02 94 1012.5
20260903113130 69 99 2.0 10.0 0.02 0.02 0.02 93 1012.7
20260903111548 70 122 3.0 5.0 0.02 0.02 0.02 91 1012.6
20260903110045 72 99 1.0 6.0 0.01 0.01 0.01 88 1012.7
20260903104556 72 111 4.0 7.0 0.00 0.00 0.00 87 1012.5
20260903103040 73 67 2.0 10.0 0.00 0.00 0.00 87 1012.7
20260903101539 75 92 4.0 10.0 0.00 0.00 0.00 87 1012.6
20260903100040 75 28 4.0 9.0 0.00 0.00 0.00 89 1012.2
20260903094548 75 250 1.0 3.0 0.00 0.00 0.00 89 1011.7
20260903093040 74 246 0.0 0.0 0.00 0.00 0.00 89 1011.6
20260903091547 74 244 0.0 1.0 0.00 0.00 0.00 88 1011.4
20260903090045 74 246 0.0 3.0 0.00 0.00 0.00 88 1011.5
20260903084535 73 313 0.0 3.0 0.00 0.00 0.00 89 1011.2
20260903083035 73 338 0.0 2.0 0.00 0.00 0.00 89 1011.2
20260903081533 73 338 0.0 0.0 0.00 0.00 0.00 89 1011.3
20260903080032 73 338 0.0 1.0 0.00 0.00 0.00 88 1011.4
20260903074536 74 338 0.0 3.0 0.00 0.00 0.00 86 1011.5
20260903073032 75 338 0.0 0.0 0.00 0.00 0.00 84 1011.6
20260903071529 76 338 0.0 0.0 0.00 0.00 0.00 84 1011.4
20260903070023 77 338 0.0 1.0 0.00 0.00 0.00 80 1011.6
20260903064519 78 338 0.0 2.0 0.00 0.00 0.00 78 1011.9
20260903063016 78 333 1.0 4.0 0.00 0.00 0.00 78 1012.1
20260903061514 79 321 4.0 9.0 0.00 0.00 0.00 79 1012.3
20260903060012 80 74 2.0 13.0 0.00 0.00 0.00 83 1012.3
20260903054508 80 257 2.0 4.0 0.00 0.00 0.00 83 1011.5
20260903053015 80 264 2.0 9.0 0.00 0.00 0.00 83 1011.5
20260903051506 80 250 3.0 7.0 0.00 0.00 0.00 82 1011.3
20260903050003 80 273 1.0 8.0 0.00 0.00 0.00 82 1011.0
20260903044502 80 307 1.0 6.0 0.00 0.00 0.00 82 1010.9
20260903043206 80 286 3.0 8.0 0.00 0.00 0.00 81 1010.7
20260903041600 81 261 4.0 9.0 0.00 0.00 0.00 81 1010.5
20260903040054 81 271 5.0 12.0 0.00 0.00 0.00 81 1010.4
20260903034554 81 360 3.0 9.0 0.00 0.00 0.00 80 1010.3
20260903033054 81 360 2.0 8.0 0.00 0.00 0.00 81 1010.0
20260903031556 81 302 1.0 7.0 0.00 0.00 0.00 80 1010.2
20260903030049 81 228 2.0 6.0 0.00 0.00 0.00 80 1010.6
20260903024549 81 278 2.0 7.0 0.00 0.00 0.00 80 1010.9
20260903023049 81 289 1.0 5.0 0.00 0.00 0.00 80 1011.1
20260903021547 81 261 1.0 4.0 0.00 0.00 0.00 81 1011.1
20260903020046 81 269 0.0 3.0 0.00 0.00 0.00 82 1011.1
20260903014549 80 255 1.0 3.0 0.00 0.00 0.00 83 1011.2
20260903013052 81 278 0.0 0.0 0.00 0.00 0.00 81 1011.2
20260903011545 82 283 0.0 0.0 0.00 0.00 0.00 80 1011.4
20260903010045 81 274 0.0 4.0 0.00 0.00 0.00 81 1011.2
20260903004543 82 257 0.0 2.0 0.00 0.00 0.00 80 1011.0
20260903003043 83 257 0.0 3.0 0.00 0.00 0.00 79 1010.9
20260903001543 83 248 0.0 0.0 0.00 0.00 0.00 77 1010.7
20260903000044 85 250 0.0 1.0 0.00 0.00 0.00 75 1010.8
20260902234546 86 240 0.0 8.0 0.00 0.00 0.00 72 1010.8
20260902233040 87 327 2.0 6.0 0.00 0.00 0.00 70 1010.8
20260902231541 87 252 0.0 5.0 0.00 0.00 0.00 70 1010.8
20260902230040 88 277 1.0 5.0 0.00 0.00 0.00 68 1010.7
20260902224601 89 265 2.0 9.0 0.00 0.00 0.00 67 1010.7
20260902223039 89 294 2.0 8.0 0.00 0.00 0.00 66 1010.7
20260902221539 89 266 1.0 11.0 0.00 0.00 0.00 67 1010.6
20260902220043 89 259 4.0 10.0 0.00 0.00 0.00 65 1010.6
20260902214537 90 298 3.0 10.0 0.00 0.00 0.00 65 1010.7
20260902213035 89 288 5.0 12.0 0.00 0.00 0.00 66 1010.8
20260902211535 89 269 2.0 12.0 0.00 0.00 0.00 66 1010.9
20260902210033 89 277 4.0 8.0 0.00 0.00 0.00 65 1011.0
20260902204538 90 255 3.0 8.0 0.00 0.00 0.00 64 1011.3
20260902203033 90 262 3.0 12.0 0.00 0.00 0.00 62 1011.3
20260902201527 90 309 3.0 9.0 0.00 0.00 0.00 64 1011.5
20260902200140 90 289 3.0 11.0 0.00 0.00 0.00 66 1011.5
20260902194527 91 263 3.0 8.0 0.00 0.00 0.00 64 1011.7
20260902193021 91 271 6.0 11.0 0.00 0.00 0.00 63 1011.8
20260902191519 91 253 6.0 11.0 0.00 0.00 0.00 65 1012.0
20260902190030 90 285 3.0 9.0 0.00 0.00 0.00 65 1012.1
20260902184514 90 311 3.0 10.0 0.00 0.00 0.00 66 1012.3
20260902183013 89 288 4.0 9.0 0.00 0.00 0.00 66 1012.5
20260902181511 90 284 5.0 11.0 0.00 0.00 0.00 68 1012.6
20260902180010 89 311 4.0 8.0 0.00 0.00 0.00 66 1012.7
20260902174507 89 299 3.0 8.0 0.00 0.00 0.00 66 1013.0
20260902173007 89 302 3.0 8.0 0.00 0.00 0.00 66 1013.2
20260902171504 88 275 3.0 9.0 0.00 0.00 0.00 66 1013.4
20260902170004 88 277 4.0 9.0 0.00 0.00 0.00 66 1013.4
20260902164600 88 259 2.0 6.0 0.00 0.00 0.00 69 1013.4
20260902163057 87 302 2.0 11.0 0.00 0.00 0.00 71 1013.5
20260902161555 86 284 3.0 7.0 0.00 0.00 0.00 76 1013.6
20260902160056 86 275 3.0 7.0 0.00 0.00 0.00 77 1013.8
20260902154649 85 265 1.0 7.0 0.00 0.00 0.00 77 1013.8
20260902153046 84 253 1.0 5.0 0.00 0.00 0.00 77 1014.0
20260902151544 84 311 2.0 9.0 0.00 0.00 0.00 78 1014.0
20260902150042 84 249 3.0 8.0 0.00 0.00 0.00 78 1014.0
20260902144539 83 296 3.0 8.0 0.00 0.00 0.00 81 1013.8
20260902143035 82 254 2.0 7.0 0.00 0.00 0.00 83 1013.7
20260902141537 81 220 1.0 8.0 0.00 0.00 0.00 84 1013.6